Home > Weather > Vechta > Past weeks

Flag for Germany Past Weather in Vechta, Lower Saxony, Germany — Yesterday and Last 2 Weeks

Now
57 °F

Drizzle. Fog.


Feels Like: 53 °F
Forecast: 53 / 65 °F
Wind: 18 mph from West

Location: Bremen Airport

Current Time: Jun 25, 2016 at 9:43:45 PM

Latest Report: Jun 25, 2016 at 8:50 PM


Visibility: 2 mi

Pressure: 29.89 "Hg

Humidity: 100%

Dew Point: 57 °F

Location of VechtaLocation

Past Weather in Vechta — Graph

°F

Vechta Temperature Yesterday

Maximum temperature yesterday: 81 °F (at 2:50 PM)
Minimum temperature yesterday: 64 °F (at 10:50 PM)
Average temperature yesterday: 70 °F

High & Low Weather Summary for the Past Weeks

 TemperatureHumidityPressure
High88 °F (Jun 23, 2:50 PM)100% (Jun 11, 4:20 AM)30.21 "Hg (Jun 11, 4:20 AM)
Low46 °F (Jun 20, 1:50 AM)40% (Jun 11, 2:50 PM)29.45 "Hg (Jun 14, 12:50 PM)
Average63 °F81%29.85 "Hg
* Reported Jun 10 8:20 PM — Jun 25 8:20 PM, Vechta, Weather by CustomWeather, © 2016

Note: Actual official high and low records may vary slightly from our data, if they occured in-between our weather recording intervals... More about our weather records

Advertising

Vechta Weather History for the Previous 24 Hours

Scroll right to see more
 ConditionsComfort  
Time TempWeatherWind HumidityBarometerVisibility
8:20 PM
Sat, Jun 25
59 °FLight rain. Fog.17 mph94%29.89 "Hg2 mi
7:50 PM59 °FLight rain. Fog.16 mph100%29.89 "Hg2 mi
7:20 PM61 °FLight rain. Fog.16 mph94%29.89 "Hg2 mi
6:50 PM61 °FRain. Fog.13 mph100%29.86 "Hg2 mi
6:20 PM63 °FLight rain. Low clouds.10 mph94%29.86 "Hg4 mi
5:50 PM63 °FLight rain. Low clouds.8 mph100%29.86 "Hg4 mi
5:20 PM63 °FLight rain. Fog.7 mph94%29.86 "Hg3 mi
4:50 PM63 °FLight rain. Fog.8 mph94%29.89 "Hg3 mi
4:20 PM63 °FLow clouds.9 mph94%29.89 "Hg5 mi
3:50 PM63 °FLow clouds.8 mph94%29.89 "Hg5 mi
3:20 PM63 °FLight rain. Partly sunny.9 mph94%29.89 "Hg5 mi
2:50 PM64 °FLight rain. Partly sunny.9 mph94%29.89 "Hg6 mi
2:20 PM64 °FLight rain. Partly sunny.10 mph88%29.89 "HgN/A
1:50 PM64 °FLight rain. Partly sunny.10 mph88%29.92 "HgN/A
1:20 PM64 °FLight rain. Partly sunny.8 mph88%29.92 "HgN/A
12:50 PM64 °FSprinkles. Partly sunny.12 mph88%29.92 "HgN/A
12:20 PM66 °FBroken clouds.12 mph83%29.92 "HgN/A
11:50 AM64 °FBroken clouds.10 mph88%29.92 "HgN/A
11:20 AM63 °FPartly sunny.12 mph94%29.92 "HgN/A
10:50 AM63 °FPartly sunny.8 mph94%29.95 "HgN/A
10:20 AM61 °FSprinkles. Broken clouds.8 mph100%29.95 "Hg3 mi
9:50 AM61 °FThundershowers. Partly sunny.14 mph100%29.98 "Hg1 mi
9:20 AM63 °FPartly sunny.3 mph94%30.01 "HgN/A
8:50 AM63 °FPartly sunny.7 mph88%29.98 "HgN/A
8:20 AM63 °FPartly sunny.8 mph88%29.98 "Hg5 mi
7:50 AM63 °FPartly sunny.10 mph88%29.98 "Hg5 mi
7:20 AM63 °FPartly sunny.9 mph88%29.98 "Hg4 mi
6:50 AM61 °FPartly sunny.10 mph94%29.98 "Hg4 mi
6:20 AM63 °FPartly sunny.8 mph94%29.98 "Hg4 mi
5:50 AM63 °FFog.7 mph94%29.98 "Hg3 mi
5:20 AM63 °FFog.6 mph94%29.98 "Hg3 mi
4:50 AM63 °FFog.7 mph94%30.01 "Hg3 mi
4:20 AM63 °FFog.6 mph94%30.01 "Hg3 mi
3:50 AM63 °FFog.5 mph94%30.01 "Hg3 mi
3:20 AM63 °FPartly cloudy.6 mph94%30.01 "Hg4 mi
2:50 AM63 °FFog.6 mph94%30.04 "Hg4 mi
2:20 AM63 °FFog.7 mph94%30.04 "Hg4 mi
1:50 AM64 °FFog.6 mph88%30.04 "Hg3 mi
1:20 AM64 °FPassing clouds.7 mph94%30.04 "Hg5 mi
12:50 AM64 °FPassing clouds.8 mph88%30.04 "Hg5 mi
12:20 AM64 °FPassing clouds.8 mph88%30.04 "Hg5 mi
11:50 PM
Fri, Jun 24
64 °FPassing clouds.7 mph94%30.04 "HgN/A
11:20 PM64 °FPartly cloudy.8 mph94%30.04 "HgN/A
10:50 PM64 °FPartly sunny.9 mph94%30.04 "HgN/A
10:20 PM66 °FBroken clouds.6 mph88%30.04 "HgN/A
9:50 PM66 °FBroken clouds.8 mph88%30.04 "HgN/A
9:20 PM66 °FPartly sunny.8 mph94%30.04 "HgN/A
Weather by CustomWeather, © 2016

See weather overviewHow to use our weather pages